• In Belarus
  • List of Countries
  • For 7 days
  • Water Temperature
  • Weather Map
  • Weather Widgets
  • user-avatar
    Login

    Hourly Weather Canberra

    Today, 8 April, Wednesday

    Time Temperature Precipitation Wind Pressure Humidity
    00:00 +11°C° 0 mm 1 mps 712 mmHg 91%
    01:00 +11°C° 0 mm 1 mps 711 mmHg 92%
    02:00 +11°C° 0 mm 1 mps 711 mmHg 91%
    03:00 +12°C° 0 mm 1 mps 711 mmHg 90%
    04:00 +12°C° 0 mm 1 mps 711 mmHg 90%
    05:00 +12°C° 0.1 mm 1 mps 712 mmHg 90%
    06:00 +12°C° 0.1 mm 1 mps 712 mmHg 91%
    07:00 +12°C° 0.1 mm 1 mps 712 mmHg 92%
    08:00 +12°C° 0.2 mm 1 mps 713 mmHg 91%
    09:00 +13°C° 0.2 mm 1 mps 713 mmHg 90%
    10:00 +14°C° 0 mm 1 mps 713 mmHg 87%
    11:00 +15°C° 0.1 mm 1 mps 713 mmHg 83%
    12:00 +16°C° 0.1 mm 1 mps 713 mmHg 78%
    13:00 +17°C° 0.1 mm 2 mps 713 mmHg 74%
    14:00 +16°C° 0.4 mm 2 mps 713 mmHg 74%
    15:00 +16°C° 0.4 mm 3 mps 713 mmHg 75%
    16:00 +16°C° 0 mm 3 mps 713 mmHg 74%
    17:00 +14°C° 0.1 mm 3 mps 714 mmHg 80%
    18:00 +13°C° 0.1 mm 3 mps 714 mmHg 86%
    19:00 +11°C° 0.1 mm 3 mps 715 mmHg 91%
    20:00 +11°C° 0 mm 3 mps 715 mmHg 91%
    21:00 +11°C° 0 mm 3 mps 715 mmHg 91%
    22:00 +11°C° 0 mm 3 mps 716 mmHg 90%
    23:00 +11°C° 0 mm 3 mps 716 mmHg 91%

    Tomorrow, 9 April, Thursday

    Time Temperature Precipitation Wind Pressure Humidity
    00:00 +10°C° 0 mm 3 mps 715 mmHg 91%
    01:00 +10°C° 0 mm 2 mps 715 mmHg 92%
    02:00 +10°C° 0 mm 3 mps 715 mmHg 91%
    03:00 +10°C° 0 mm 3 mps 716 mmHg 91%
    04:00 +10°C° 0 mm 3 mps 716 mmHg 91%
    05:00 +10°C° 0 mm 3 mps 716 mmHg 91%
    06:00 +10°C° 0 mm 3 mps 716 mmHg 92%
    07:00 +10°C° 0 mm 2 mps 716 mmHg 93%
    08:00 +11°C° 0 mm 3 mps 717 mmHg 88%
    09:00 +13°C° 0 mm 3 mps 717 mmHg 83%
    10:00 +14°C° 0 mm 3 mps 717 mmHg 77%
    11:00 +15°C° 0 mm 4 mps 717 mmHg 73%
    12:00 +17°C° 0 mm 4 mps 717 mmHg 69%
    13:00 +18°C° 0 mm 4 mps 716 mmHg 64%
    14:00 +18°C° 0 mm 4 mps 716 mmHg 66%
    15:00 +18°C° 0 mm 4 mps 715 mmHg 67%
    16:00 +18°C° 0 mm 4 mps 715 mmHg 68%
    17:00 +15°C° 0 mm 4 mps 715 mmHg 76%
    18:00 +14°C° 0 mm 3 mps 715 mmHg 84%
    19:00 +12°C° 0 mm 3 mps 715 mmHg 91%
    20:00 +13°C° 0 mm 2 mps 715 mmHg 91%
    21:00 +14°C° 0 mm 2 mps 715 mmHg 91%
    22:00 +14°C° 0 mm 1 mps 715 mmHg 91%
    23:00 +14°C° 0 mm 1 mps 715 mmHg 91%

    Day after tomorrow, 10 April, Friday

    Time Temperature Precipitation Wind Pressure Humidity
    00:00 +14°C° 0 mm 1 mps 714 mmHg 91%
    01:00 +14°C° 0 mm 1 mps 714 mmHg 92%
    02:00 +14°C° 0.2 mm 1 mps 713 mmHg 93%
    03:00 +14°C° 0.2 mm 1 mps 713 mmHg 94%
    04:00 +13°C° 0.2 mm 0 mps 712 mmHg 96%
    05:00 +14°C° 1.3 mm 1 mps 712 mmHg 96%
    06:00 +14°C° 1.3 mm 1 mps 712 mmHg 97%
    07:00 +14°C° 1.3 mm 1 mps 712 mmHg 98%
    08:00 +14°C° 1.9 mm 1 mps 711 mmHg 97%
    09:00 +14°C° 1.9 mm 2 mps 711 mmHg 96%
    10:00 +14°C° 1.9 mm 3 mps 711 mmHg 96%
    11:00 +16°C° 0.9 mm 3 mps 710 mmHg 90%
    12:00 +17°C° 0.9 mm 4 mps 709 mmHg 84%
    13:00 +17°C° 0.9 mm 5 mps 709 mmHg 78%
    14:00 +17°C° 0.2 mm 5 mps 708 mmHg 75%
    15:00 +17°C° 0.2 mm 5 mps 707 mmHg 71%
    16:00 +17°C° 0.2 mm 5 mps 706 mmHg 68%
    17:00 +15°C° 0 mm 4 mps 706 mmHg 74%
    18:00 +13°C° 0 mm 3 mps 706 mmHg 80%
    19:00 +12°C° 0 mm 3 mps 706 mmHg 87%
    20:00 +12°C° 0 mm 3 mps 705 mmHg 88%
    21:00 +11°C° 0 mm 3 mps 705 mmHg 88%
    22:00 +11°C° 0 mm 3 mps 705 mmHg 89%
    23:00 +11°C° 0 mm 3 mps 705 mmHg 91%

    11 April, Saturday

    Time Temperature Precipitation Wind Pressure Humidity
    00:00 +11°C° 0 mm 4 mps 704 mmHg 92%
    01:00 +11°C° 0 mm 4 mps 704 mmHg 94%
    02:00 +10°C° 0 mm 5 mps 703 mmHg 93%
    03:00 +10°C° 0 mm 5 mps 703 mmHg 92%
    04:00 +10°C° 0 mm 5 mps 702 mmHg 92%
    05:00 +10°C° 0 mm 5 mps 702 mmHg 90%
    06:00 +10°C° 0 mm 5 mps 701 mmHg 89%
    07:00 +10°C° 0 mm 6 mps 701 mmHg 88%
    08:00 +10°C° 0.1 mm 7 mps 701 mmHg 84%
    09:00 +11°C° 0.1 mm 7 mps 701 mmHg 79%
    10:00 +12°C° 0.1 mm 8 mps 701 mmHg 75%
    11:00 +12°C° 0.1 mm 8 mps 701 mmHg 67%
    12:00 +13°C° 0.1 mm 8 mps 701 mmHg 59%
    13:00 +13°C° 0.1 mm 8 mps 701 mmHg 51%
    14:00 +12°C° 0 mm 8 mps 702 mmHg 52%
    15:00 +11°C° 0 mm 7 mps 702 mmHg 53%
    16:00 +10°C° 0 mm 7 mps 702 mmHg 54%
    17:00 +9°C° 0 mm 6 mps 703 mmHg 58%
    18:00 +8°C° 0 mm 5 mps 704 mmHg 63%
    19:00 +7°C° 0 mm 3 mps 705 mmHg 67%
    20:00 +7°C° 0 mm 3 mps 706 mmHg 71%
    21:00 +6°C° 0 mm 2 mps 706 mmHg 75%
    22:00 +5°C° 0 mm 2 mps 707 mmHg 79%
    23:00 +6°C° 0 mm 1 mps 707 mmHg 81%

    12 April, Sunday

    Time Temperature Precipitation Wind Pressure Humidity
    00:00 +5°C° 0 mm 1 mps 707 mmHg 84%
    01:00 +5°C° 0 mm 1 mps 708 mmHg 86%
    02:00 +5°C° 0 mm 1 mps 708 mmHg 87%
    03:00 +4°C° 0 mm 1 mps 708 mmHg 88%
    04:00 +3°C° 0 mm 0 mps 708 mmHg 89%
    05:00 +3°C° 0 mm 0 mps 708 mmHg 87%
    06:00 +5°C° 0 mm 1 mps 708 mmHg 86%
    07:00 +5°C° 0 mm 1 mps 709 mmHg 84%
    08:00 +8°C° 0 mm 1 mps 709 mmHg 73%
    09:00 +10°C° 0 mm 0 mps 709 mmHg 61%
    10:00 +13°C° 0 mm 0 mps 710 mmHg 49%
    11:00 +15°C° 0 mm 1 mps 710 mmHg 46%
    12:00 +16°C° 0 mm 1 mps 709 mmHg 43%
    13:00 +17°C° 0 mm 2 mps 709 mmHg 40%
    14:00 +16°C° 0 mm 2 mps 709 mmHg 43%
    15:00 +16°C° 0 mm 3 mps 709 mmHg 46%
    16:00 +16°C° 0 mm 3 mps 709 mmHg 49%
    17:00 +14°C° 0 mm 2 mps 709 mmHg 58%
    18:00 +10°C° 0 mm 2 mps 710 mmHg 67%
    19:00 +9°C° 0 mm 1 mps 710 mmHg 76%
    20:00 +9°C° 0 mm 1 mps 710 mmHg 79%
    21:00 +8°C° 0 mm 1 mps 711 mmHg 82%
    22:00 +8°C° 0 mm 1 mps 711 mmHg 85%
    23:00 +7°C° 0 mm 1 mps 711 mmHg 87%

    13 April, Monday

    Time Temperature Precipitation Wind Pressure Humidity
    00:00 +7°C° 0 mm 1 mps 711 mmHg 90%
    01:00 +6°C° 0 mm 0 mps 711 mmHg 92%
    02:00 +6°C° 0 mm 0 mps 711 mmHg 93%
    03:00 +6°C° 0 mm 0 mps 711 mmHg 93%
    04:00 +7°C° 0 mm 1 mps 711 mmHg 94%
    05:00 +6°C° 0 mm 0 mps 711 mmHg 94%
    06:00 +6°C° 0 mm 0 mps 711 mmHg 94%
    07:00 +6°C° 0 mm 0 mps 712 mmHg 94%
    08:00 +9°C° 0 mm 1 mps 712 mmHg 82%
    09:00 +12°C° 0 mm 1 mps 712 mmHg 71%
    10:00 +14°C° 0 mm 1 mps 712 mmHg 60%
    11:00 +15°C° 0 mm 2 mps 712 mmHg 56%
    12:00 +17°C° 0 mm 2 mps 712 mmHg 52%
    13:00 +18°C° 0 mm 3 mps 712 mmHg 48%
    14:00 +18°C° 0 mm 3 mps 712 mmHg 50%
    15:00 +17°C° 0 mm 3 mps 711 mmHg 52%
    16:00 +17°C° 0 mm 3 mps 711 mmHg 55%
    17:00 +15°C° 0 mm 2 mps 712 mmHg 63%
    18:00 +13°C° 0 mm 2 mps 712 mmHg 72%
    19:00 +11°C° 0 mm 1 mps 712 mmHg 80%
    20:00 +10°C° 0 mm 1 mps 712 mmHg 82%
    21:00 +9°C° 0 mm 0 mps 713 mmHg 84%
    22:00 +8°C° 0 mm 0 mps 713 mmHg 86%
    23:00 +8°C° 0 mm 0 mps 713 mmHg 87%
    Show more